| time (UTC) | temp F | wind direction | speed MPH | gust MPH | rain 1hr in | rain 24hr in | rain mn in | humidity % | barometer mb |
| 20260831111524 | 0 | 0.0 | 0.0 | 0.00 | 0.00 | 0.00 | 1019.8 | ||
| 20260831110004 | 0 | 0.0 | 0.0 | 0.00 | 0.00 | 0.00 | 1019.6 | ||
| 20260831104558 | 0 | 0.0 | 0.0 | 0.00 | 0.00 | 0.00 | 1019.4 | ||
| 20260831103043 | 0 | 0.0 | 0.0 | 0.00 | 0.00 | 0.00 | 1019.4 | ||
| 20260831101549 | 0 | 0.0 | 0.0 | 0.00 | 0.00 | 0.00 | 1019.4 | ||
| 20260831100036 | 0 | 0.0 | 0.0 | 0.00 | 0.00 | 0.00 | 1019.4 | ||
| 20260831094530 | 0 | 0.0 | 0.0 | 0.00 | 0.00 | 0.00 | 1019.5 | ||
| 20260831093026 | 0 | 0.0 | 0.0 | 0.00 | 0.00 | 0.00 | 1019.6 | ||
| 20260831091521 | 0 | 0.0 | 0.0 | 0.00 | 0.00 | 0.00 | 1019.5 | ||
| 20260831090019 | 0 | 0.0 | 0.0 | 0.00 | 0.00 | 0.00 | 1019.5 | ||
| 20260831084512 | 67 | 170 | 0.0 | 0.0 | 0.00 | 0.00 | 0.00 | 1 | 1019.4 |
| 20260831083053 | 67 | 170 | 0.0 | 0.0 | 0.00 | 0.00 | 0.00 | 1 | 1019.3 |
| 20260831081548 | 67 | 170 | 0.0 | 0.0 | 0.00 | 0.00 | 0.00 | 1 | 1019.3 |
| 20260831080025 | 67 | 170 | 0.0 | 0.0 | 0.00 | 0.00 | 0.00 | 1 | 1019.4 |
| 20260831074523 | 67 | 170 | 0.0 | 0.0 | 0.00 | 0.00 | 0.00 | 1 | 1019.3 |
| 20260831073015 | 67 | 170 | 0.0 | 0.0 | 0.00 | 0.00 | 0.00 | 1 | 1019.2 |
| 20260831071602 | 67 | 170 | 0.0 | 0.0 | 0.00 | 0.00 | 0.00 | 1 | 1019.2 |
| 20260831070056 | 68 | 170 | 0.0 | 0.0 | 0.00 | 0.00 | 0.00 | 1 | 1019.1 |
| 20260831064556 | 68 | 170 | 0.0 | 0.0 | 0.00 | 0.00 | 0.00 | 1 | 1019.1 |
| 20260831063047 | 68 | 170 | 0.0 | 0.0 | 0.00 | 0.00 | 0.00 | 1 | 1019.2 |
| 20260831061556 | 68 | 170 | 0.0 | 0.0 | 0.00 | 0.00 | 0.00 | 1 | 1019.4 |
| 20260831060039 | 69 | 170 | 0.0 | 0.0 | 0.00 | 0.00 | 0.00 | 1 | 1019.5 |
| 20260831054534 | 69 | 170 | 0.0 | 0.0 | 0.00 | 0.00 | 0.00 | 1 | 1019.6 |
| 20260831053013 | 70 | 170 | 0.0 | 0.0 | 0.00 | 0.00 | 0.00 | 1 | 1019.6 |
| 20260831051521 | 70 | 170 | 0.0 | 0.0 | 0.00 | 0.00 | 0.00 | 1 | 1019.7 |
| 20260831050047 | 71 | 170 | 0.0 | 0.0 | 0.00 | 0.00 | 0.00 | 1 | 1019.8 |
| 20260831044546 | 71 | 170 | 0.0 | 0.0 | 0.00 | 0.00 | 0.00 | 1 | 1019.8 |
| 20260831043022 | 71 | 170 | 0.0 | 0.0 | 0.00 | 0.00 | 0.00 | 1 | 1019.8 |
| 20260831041524 | 71 | 170 | 0.0 | 0.0 | 0.00 | 0.00 | 0.00 | 1 | 1019.9 |
| 20260831040055 | 72 | 170 | 0.0 | 0.0 | 0.00 | 0.00 | 0.00 | 1 | 1020.1 |
| 20260831034551 | 72 | 170 | 0.0 | 0.0 | 0.00 | 0.00 | 0.00 | 1 | 1020.4 |
| 20260831033034 | 72 | 212 | 0.0 | 0.0 | 0.00 | 0.00 | 0.00 | 1 | 1020.3 |
| 20260831031534 | 72 | 213 | 0.0 | 0.0 | 0.00 | 0.00 | 0.00 | 1 | 1020.8 |
| 20260831030005 | 72 | 217 | 0.0 | 0.0 | 0.00 | 0.00 | 0.00 | 1 | 1020.3 |
| 20260831024638 | 72 | 307 | 0.0 | 0.0 | 0.00 | 0.00 | 0.00 | 1 | 1020.5 |
| 20260831023045 | 72 | 307 | 0.0 | 0.0 | 0.00 | 0.00 | 0.00 | 1 | 1020.6 |
| 20260831021540 | 72 | 307 | 0.0 | 0.0 | 0.00 | 0.00 | 0.00 | 1 | 1020.3 |
| 20260831020036 | 72 | 307 | 0.0 | 0.0 | 0.00 | 0.00 | 0.00 | 1 | 1020.3 |
| 20260831014537 | 72 | 307 | 0.0 | 0.0 | 0.00 | 0.00 | 0.00 | 1 | 1020.3 |
| 20260831013027 | 72 | 307 | 0.0 | 0.0 | 0.00 | 0.00 | 0.00 | 1 | 1020.2 |
| 20260831011523 | 72 | 307 | 0.0 | 0.0 | 0.00 | 0.00 | 0.00 | 1 | 1020.1 |
| 20260831010019 | 72 | 307 | 0.0 | 0.0 | 0.00 | 0.00 | 0.00 | 1 | 1019.9 |
| 20260831004515 | 72 | 307 | 0.0 | 0.0 | 0.00 | 0.00 | 0.00 | 1 | 1019.7 |
| 20260831003110 | 72 | 307 | 0.0 | 0.0 | 0.00 | 0.00 | 0.00 | 1 | 1019.4 |
| 20260831001549 | 73 | 307 | 0.0 | 0.0 | 0.00 | 0.00 | 0.00 | 1 | 1019.1 |
| 20260831000046 | 75 | 307 | 0.0 | 0.0 | 0.00 | 0.00 | 0.00 | 29 | 1019.1 |
| 20260830234523 | 76 | 216 | 0.0 | 0.0 | 0.00 | 0.00 | 0.00 | 34 | 1019.0 |
| 20260830233020 | 77 | 173 | 0.0 | 0.0 | 0.00 | 0.00 | 0.00 | 39 | 1018.7 |
| 20260830231558 | 78 | 173 | 0.0 | 0.0 | 0.00 | 0.00 | 0.00 | 47 | 1018.5 |
| 20260830230055 | 79 | 185 | 0.0 | 0.0 | 0.00 | 0.00 | 0.00 | 51 | 1018.4 |
| 20260830224540 | 80 | 184 | 0.0 | 0.0 | 0.00 | 0.00 | 0.00 | 53 | 1018.5 |
| 20260830223028 | 81 | 186 | 0.0 | 0.0 | 0.00 | 0.00 | 0.00 | 55 | 1018.6 |
| 20260830221506 | 81 | 190 | 0.0 | 0.0 | 0.00 | 0.00 | 0.00 | 60 | 1018.7 |
| 20260830220003 | 81 | 160 | 0.0 | 0.0 | 0.00 | 0.00 | 0.00 | 56 | 1018.7 |
| 20260830214541 | 81 | 160 | 0.0 | 0.0 | 0.00 | 0.00 | 0.00 | 61 | 1018.8 |
| 20260830213036 | 81 | 160 | 0.0 | 0.0 | 0.00 | 0.00 | 0.00 | 62 | 1018.9 |
| 20260830211515 | 81 | 160 | 0.0 | 0.0 | 0.00 | 0.00 | 0.00 | 61 | 1018.9 |
| 20260830210012 | 80 | 155 | 0.0 | 0.0 | 0.00 | 0.00 | 0.00 | 62 | 1019.0 |
| 20260830204548 | 82 | 211 | 0.0 | 0.0 | 0.00 | 0.00 | 0.00 | 62 | 1019.1 |
| 20260830203057 | 81 | 262 | 0.0 | 0.0 | 0.00 | 0.00 | 0.00 | 62 | 1019.3 |
| 20260830201537 | 81 | 267 | 0.0 | 0.0 | 0.00 | 0.00 | 0.00 | 59 | 1019.5 |
| 20260830200020 | 82 | 252 | 0.0 | 0.0 | 0.00 | 0.00 | 0.00 | 60 | 1019.4 |
| 20260830194503 | 83 | 271 | 0.0 | 0.0 | 0.00 | 0.00 | 0.00 | 65 | 1019.5 |
| 20260830193100 | 85 | 188 | 0.0 | 0.0 | 0.00 | 0.00 | 0.00 | 64 | 1019.0 |
| 20260830191559 | 88 | 111 | 0.0 | 0.0 | 0.00 | 0.00 | 0.00 | 63 | 1019.2 |
| 20260830190050 | 87 | 263 | 0.0 | 0.0 | 0.00 | 0.00 | 0.00 | 64 | 1019.4 |
| 20260830184545 | 87 | 223 | 0.0 | 0.0 | 0.00 | 0.00 | 0.00 | 62 | 1019.6 |
| 20260830183040 | 88 | 282 | 0.0 | 0.0 | 0.00 | 0.00 | 0.00 | 60 | 1019.7 |
| 20260830181546 | 87 | 256 | 0.0 | 0.0 | 0.00 | 0.00 | 0.00 | 62 | 1019.8 |
| 20260830180035 | 86 | 239 | 0.0 | 0.0 | 0.00 | 0.00 | 0.00 | 63 | 1020.1 |
| 20260830174512 | 85 | 283 | 0.0 | 0.0 | 0.00 | 0.00 | 0.00 | 64 | 1020.5 |
| 20260830173008 | 85 | 251 | 0.0 | 0.0 | 0.00 | 0.00 | 0.00 | 64 | 1020.7 |
| 20260830171545 | 85 | 292 | 0.0 | 0.0 | 0.00 | 0.00 | 0.00 | 63 | 1020.9 |
| 20260830170040 | 83 | 247 | 0.0 | 0.0 | 0.00 | 0.00 | 0.00 | 64 | 1020.9 |
| 20260830164530 | 83 | 254 | 0.0 | 0.0 | 0.00 | 0.00 | 0.00 | 64 | 1021.0 |
| 20260830163017 | 82 | 250 | 0.0 | 0.0 | 0.00 | 0.00 | 0.00 | 63 | 1021.2 |
| 20260830161555 | 82 | 252 | 0.0 | 0.0 | 0.00 | 0.00 | 0.00 | 63 | 1021.3 |
| 20260830160048 | 83 | 248 | 0.0 | 0.0 | 0.00 | 0.00 | 0.00 | 64 | 1021.2 |
| 20260830154532 | 83 | 281 | 0.0 | 0.0 | 0.00 | 0.00 | 0.00 | 63 | 1021.3 |
| 20260830153023 | 82 | 267 | 0.0 | 0.0 | 0.00 | 0.00 | 0.00 | 63 | 1021.4 |
| 20260830151501 | 82 | 277 | 0.0 | 0.0 | 0.00 | 0.00 | 0.00 | 62 | 1021.4 |
| 20260830150057 | 81 | 306 | 0.0 | 0.0 | 0.00 | 0.00 | 0.00 | 62 | 1021.4 |
| 20260830144534 | 80 | 273 | 0.0 | 0.0 | 0.00 | 0.00 | 0.00 | 59 | 1021.5 |
| 20260830143030 | 78 | 275 | 0.0 | 0.0 | 0.00 | 0.00 | 0.00 | 46 | 1021.5 |
| 20260830141509 | 76 | 286 | 0.0 | 0.0 | 0.00 | 0.00 | 0.00 | 16 | 1021.4 |
| 20260830140004 | 74 | 90 | 0.0 | 0.0 | 0.00 | 0.00 | 0.00 | 1 | 1021.3 |
| 20260830134545 | 72 | 331 | 0.0 | 0.0 | 0.00 | 0.00 | 0.00 | 1 | 1021.2 |
| 20260830133051 | 72 | 351 | 0.0 | 0.0 | 0.00 | 0.00 | 0.00 | 1 | 1021.4 |
| 20260830131519 | 70 | 265 | 0.0 | 0.0 | 0.00 | 0.00 | 0.00 | 1 | 1021.4 |
| 20260830130015 | 69 | 113 | 0.0 | 0.0 | 0.00 | 0.00 | 0.00 | 1 | 1021.5 |
| 20260830124608 | 67 | 113 | 0.0 | 0.0 | 0.00 | 0.00 | 0.00 | 1 | 1021.5 |
| 20260830123051 | 66 | 191 | 0.0 | 0.0 | 0.00 | 0.00 | 0.00 | 1 | 1021.4 |
| 20260830121526 | 65 | 191 | 0.0 | 0.0 | 0.00 | 0.00 | 0.00 | 1 | 1021.5 |
| 20260830120022 | 63 | 191 | 0.0 | 0.0 | 0.00 | 0.00 | 0.00 | 1 | 1021.5 |
| 20260830114622 | 62 | 119 | 0.0 | 0.0 | 0.00 | 0.00 | 0.00 | 1 | 1021.5 |
| 20260830113105 | 0 | 0.0 | 0.0 | 0.00 | 0.00 | 0.00 | 1021.4 |